Ozery, Russia
Current Conditions -  °F | °C
As of 4:30 AM on Friday 19 Dec 2014 (Local Time) from UUDD Reporting Station
Overcast Overcast  
Wind Chill: 28°   Ceiling: 900
Heat Index: 32°   Visibility: 6mi
Dew Point: 30°   Wind: 4mph
Humidity: 93%   Direction: 210°SSW
Pressure: 29.8"   Gusts: NA
Location:  54.85°N, 38.55°E
Report Text: UUDD 190130Z 21002MPS 180V240 9999 OVC009 00/M01 Q1009 32290095NOSIG
Loading
Personal Weather Stations






























Interactive Weather Map New forecast layout! Learn more

10-Day Weather Forecast

Advertisements
Track Severe Weather on mobile